Weather History for Friday Harbor, WA

Change the Weather History Date:

Monday, March 31, 2014

  Actual Average Record
Temperature  
Mean Temperature 45 °F -  
Max Temperature 55 °F 50 °F 64 °F (2013)
Min Temperature 37 °F 36 °F 28 °F (2008)
Degree Days  
Heating Degree Days 20    
Moisture  
Dew Point 37 °F    
Average Humidity 71    
Maximum Humidity 96    
Minimum Humidity 57    
Precipitation  
Precipitation 0.00 in - - ()
Sea Level Pressure  
Sea Level Pressure 29.87 in    
Wind  
Wind Speed 5 mph (North)    
Max Wind Speed 9 mph    
Max Gust Speed -    
Visibility 10 miles    
Events      
Averages and records for this station are not official NWS values.
T = Trace of Precipitation, MM = Missing Value Source: NWS Daily Summary

Daily Weather History Graph

Daily Weather History Graph

Search for Another Location

Airport:

Trip Planner

Search our weather history database for the weather conditions in past years. The results will help you decide how hot, cold, wet, or windy it might be!

Date:

Astronomy

Mar. 31, 2014 Rise Set
Actual Time 6:51 AM PDT 7:41 PM PDT
Civil Twilight 6:20 AM PDT 8:13 PM PDT
Nautical Twilight 5:42 AM PDT 8:51 PM PDT
Astronomical Twilight 5:02 AM PDT 9:31 PM PDT
Moon 7:13 AM PDT (3/31) 9:14 PM PDT (3/31)
Length of Visible Light 13h 53m
Length of Day
12h 49m
New Moon, 1% of the Moon is Illuminated
Mar 31
New Moon
Apr 7
First Quarter
Apr 15
Full
Apr 22
Last Quarter
Apr 28
New

Hourly Weather History & Observations

Time (PDT) Temp. Windchill Dew Point Humidity Pressure Visibility Wind Dir Wind Speed Gust Speed Precip Events Conditions
12:53 AM 41.0 °F 38.0 °F 37.9 °F 89% 30.00 in 10.0 mi NNE 4.6 mph - N/A   Clear
1:53 AM 42.1 °F - 37.9 °F 85% 30.00 in 10.0 mi Calm Calm - N/A   Clear
2:53 AM 42.1 °F 39.2 °F 37.9 °F 85% 29.99 in 10.0 mi Variable 4.6 mph - N/A   Clear
3:53 AM 42.1 °F 38.4 °F 37.9 °F 85% 29.97 in 10.0 mi North 5.8 mph - N/A   Clear
4:53 AM 37.0 °F - 35.1 °F 93% 29.96 in 10.0 mi Calm Calm - N/A   Clear
5:53 AM 37.9 °F 35.5 °F 35.1 °F 89% 29.94 in 10.0 mi NW 3.5 mph - N/A   Clear
6:53 AM 39.9 °F 37.8 °F 37.0 °F 89% 29.93 in 10.0 mi WNW 3.5 mph - N/A   Clear
7:53 AM 39.0 °F - 37.9 °F 96% 29.92 in 10.0 mi Calm Calm - N/A   Clear
8:53 AM 44.1 °F 42.5 °F 39.0 °F 82% 29.92 in 10.0 mi ENE 3.5 mph - N/A   Clear
9:53 AM 46.0 °F 43.1 °F 37.0 °F 71% 29.92 in 10.0 mi North 5.8 mph - N/A   Clear
10:53 AM 50.0 °F - 37.9 °F 63% 29.91 in 10.0 mi East 4.6 mph - N/A   Clear
11:53 AM 52.0 °F - 37.0 °F 57% 29.90 in 10.0 mi NNE 6.9 mph - N/A   Clear
12:53 PM 52.0 °F - 37.0 °F 57% 29.88 in 10.0 mi NNE 3.5 mph - N/A   Clear
1:53 PM 53.1 °F - 39.0 °F 59% 29.86 in 10.0 mi North 9.2 mph - N/A   Clear
2:53 PM 53.1 °F - 37.9 °F 57% 29.83 in 10.0 mi Variable 6.9 mph - N/A   Clear
3:53 PM 53.1 °F - 37.9 °F 57% 29.81 in 10.0 mi North 9.2 mph - N/A   Clear
4:53 PM 53.1 °F - 37.9 °F 57% 29.80 in 10.0 mi NNW 6.9 mph - N/A   Clear
5:53 PM 52.0 °F - 37.0 °F 57% 29.79 in 10.0 mi NNW 8.1 mph - N/A   Clear
6:53 PM 50.0 °F - 36.0 °F 59% 29.77 in 10.0 mi NNW 5.8 mph - N/A   Clear
7:53 PM 48.0 °F - 35.1 °F 61% 29.76 in 10.0 mi North 8.1 mph - N/A   Partly Cloudy
8:53 PM 48.0 °F - 36.0 °F 63% 29.77 in 10.0 mi North 8.1 mph - N/A   Clear
9:53 PM 48.0 °F - 37.9 °F 68% 29.77 in 10.0 mi NNW 9.2 mph - N/A   Clear
10:53 PM 48.0 °F - 37.9 °F 68% 29.76 in 10.0 mi NNW 8.1 mph - N/A   Clear
11:53 PM 48.0 °F - 37.0 °F 66% 29.77 in 10.0 mi Variable 6.9 mph - N/A   Clear